| time (UTC) | temp F | wind direction | speed MPH | gust MPH | rain 1hr in | rain 24hr in | rain mn in | humidity % | barometer mb |
| 20260831012651 | 79 | 218 | 1.0 | 2.0 | 0.00 | 0.00 | 0.00 | 1 | 1016.4 |
| 20260831011648 | 77 | 325 | 3.0 | 3.0 | 0.00 | 0.00 | 0.00 | 1 | 1016.5 |
| 20260831010625 | 77 | 1 | 5.0 | 6.0 | 0.00 | 0.00 | 0.00 | 1 | 1016.5 |
| 20260831005621 | 79 | 0.0 | 0.0 | 0.00 | 0.00 | 0.00 | 1 | 1016.6 | |
| 20260831004618 | 78 | 350 | 0.0 | 2.0 | 0.00 | 0.00 | 0.00 | 1 | 1016.6 |
| 20260831003635 | 78 | 172 | 2.0 | 2.0 | 0.00 | 0.00 | 0.00 | 1 | 1016.7 |
| 20260831002631 | 79 | 265 | 0.0 | 2.0 | 0.00 | 0.00 | 0.00 | 1 | 1016.8 |
| 20260831001648 | 78 | 219 | 1.0 | 3.0 | 0.00 | 0.00 | 0.00 | 1 | 1016.9 |
| 20260831000625 | 77 | 225 | 2.0 | 3.0 | 0.00 | 0.00 | 0.00 | 1 | 1016.8 |
| 20260830235723 | 76 | 180 | 1.0 | 3.0 | 0.00 | 0.00 | 0.00 | 1 | 1016.9 |
| 20260830234618 | 78 | 9 | 1.0 | 2.0 | 0.00 | 0.00 | 0.00 | 1 | 1017.0 |
| 20260830233634 | 77 | 7 | 1.0 | 3.0 | 0.00 | 0.00 | 0.00 | 1 | 1017.3 |
| 20260830232632 | 77 | 227 | 2.0 | 3.0 | 0.00 | 0.00 | 0.00 | 1 | 1017.2 |
| 20260830231628 | 75 | 0.0 | 1.0 | 0.00 | 0.00 | 0.00 | 1 | 1017.3 | |
| 20260830230705 | 75 | 43 | 3.0 | 4.0 | 0.00 | 0.00 | 0.00 | 1 | 1017.3 |
| 20260830225641 | 76 | 272 | 4.0 | 5.0 | 0.00 | 0.00 | 0.00 | 1 | 1017.4 |
| 20260830224618 | 75 | 342 | 1.0 | 2.0 | 0.00 | 0.00 | 0.00 | 1 | 1017.6 |
| 20260830223635 | 75 | 185 | 4.0 | 4.0 | 0.00 | 0.00 | 0.00 | 1 | 1017.7 |
| 20260830222631 | 74 | 6 | 1.0 | 2.0 | 0.00 | 0.00 | 0.00 | 1 | 1018.1 |
| 20260830221628 | 74 | 345 | 1.0 | 2.0 | 0.00 | 0.00 | 0.00 | 1 | 1018.0 |
| 20260830220625 | 73 | 68 | 0.0 | 1.0 | 0.00 | 0.00 | 0.00 | 1 | 1018.4 |
| 20260830215622 | 73 | 110 | 3.0 | 4.0 | 0.00 | 0.00 | 0.00 | 1 | 1018.5 |
| 20260830214618 | 74 | 215 | 5.0 | 7.0 | 0.00 | 0.00 | 0.00 | 1 | 1018.7 |
| 20260830213635 | 73 | 273 | 4.0 | 8.0 | 0.00 | 0.00 | 0.00 | 1 | 1018.7 |
| 20260830212632 | 73 | 242 | 3.0 | 6.0 | 0.00 | 0.00 | 0.00 | 1 | 1018.8 |
| 20260830211629 | 72 | 275 | 3.0 | 5.0 | 0.00 | 0.00 | 0.00 | 1 | 1018.9 |
| 20260830210625 | 72 | 223 | 3.0 | 5.0 | 0.00 | 0.00 | 0.00 | 1 | 1018.9 |
| 20260830205622 | 71 | 213 | 8.0 | 9.0 | 0.00 | 0.00 | 0.00 | 1 | 1019.0 |
| 20260830204618 | 71 | 217 | 7.0 | 10.0 | 0.00 | 0.00 | 0.00 | 1 | 1018.8 |
| 20260830203635 | 71 | 232 | 2.0 | 6.0 | 0.00 | 0.00 | 0.00 | 1 | 1019.2 |
| 20260830202632 | 70 | 261 | 5.0 | 7.0 | 0.00 | 0.00 | 0.00 | 1 | 1019.2 |
| 20260830201628 | 70 | 295 | 2.0 | 6.0 | 0.00 | 0.00 | 0.00 | 1 | 1019.3 |
| 20260830200337 | 70 | 183 | 7.0 | 11.0 | 0.00 | 0.00 | 0.00 | 1 | 1019.4 |
| 20260830195354 | 69 | 214 | 4.0 | 6.0 | 0.00 | 0.00 | 0.00 | 1 | 1019.4 |
| 20260830194330 | 68 | 205 | 4.0 | 7.0 | 0.00 | 0.00 | 0.00 | 1 | 1019.7 |
| 20260830193348 | 67 | 213 | 6.0 | 8.0 | 0.00 | 0.00 | 0.00 | 1 | 1019.9 |
| 20260830192324 | 68 | 184 | 6.0 | 9.0 | 0.00 | 0.00 | 0.00 | 1 | 1019.8 |
| 20260830191321 | 67 | 194 | 7.0 | 9.0 | 0.00 | 0.00 | 0.00 | 1 | 1019.9 |
| 20260830190317 | 67 | 198 | 7.0 | 9.0 | 0.00 | 0.00 | 0.00 | 1 | 1019.8 |
| 20260830185354 | 67 | 209 | 5.0 | 8.0 | 0.00 | 0.00 | 0.00 | 1 | 1019.7 |
| 20260830184351 | 66 | 194 | 5.0 | 9.0 | 0.00 | 0.00 | 0.00 | 1 | 1020.1 |
| 20260830183327 | 65 | 208 | 5.0 | 8.0 | 0.00 | 0.00 | 0.00 | 1 | 1020.1 |
| 20260830182323 | 65 | 205 | 7.0 | 14.0 | 0.00 | 0.00 | 0.00 | 1 | 1020.0 |
| 20260830181320 | 64 | 223 | 10.0 | 17.0 | 0.00 | 0.00 | 0.00 | 1 | 1020.2 |
| 20260830180403 | 63 | 208 | 3.0 | 4.0 | 0.00 | 0.00 | 0.00 | 1 | 1020.2 |
| 20260830175333 | 64 | 204 | 10.0 | 15.0 | 0.00 | 0.00 | 0.00 | 1 | 1020.1 |
| 20260830174330 | 63 | 205 | 9.0 | 12.0 | 0.00 | 0.00 | 0.00 | 1 | 1020.2 |
| 20260830173326 | 62 | 218 | 7.0 | 11.0 | 0.00 | 0.00 | 0.00 | 1 | 1020.1 |
| 20260830172323 | 62 | 199 | 5.0 | 9.0 | 0.00 | 0.00 | 0.00 | 1 | 1020.3 |
| 20260830171319 | 61 | 194 | 9.0 | 13.0 | 0.00 | 0.00 | 0.00 | 1 | 1020.1 |
| 20260830170336 | 62 | 208 | 7.0 | 9.0 | 0.00 | 0.00 | 0.00 | 1 | 1020.2 |
| 20260830165332 | 60 | 204 | 8.0 | 15.0 | 0.00 | 0.00 | 0.00 | 1 | 1020.3 |
| 20260830164329 | 60 | 227 | 7.0 | 11.0 | 0.00 | 0.00 | 0.00 | 1 | 1020.4 |
| 20260830163326 | 60 | 193 | 6.0 | 14.0 | 0.00 | 0.00 | 0.00 | 1 | 1020.5 |
| 20260830162322 | 60 | 221 | 5.0 | 8.0 | 0.00 | 0.00 | 0.00 | 1 | 1020.5 |
| 20260830161324 | 59 | 210 | 8.0 | 11.0 | 0.00 | 0.00 | 0.00 | 1 | 1020.5 |
| 20260830160335 | 59 | 216 | 6.0 | 10.0 | 0.00 | 0.00 | 0.00 | 1 | 1020.4 |
| 20260830155332 | 59 | 204 | 5.0 | 9.0 | 0.00 | 0.00 | 0.00 | 1 | 1020.4 |
| 20260830154329 | 59 | 221 | 9.0 | 13.0 | 0.00 | 0.00 | 0.00 | 1 | 1020.2 |
| 20260830153325 | 58 | 205 | 6.0 | 10.0 | 0.00 | 0.00 | 0.00 | 1 | 1020.2 |
| 20260830152322 | 58 | 209 | 7.0 | 9.0 | 0.00 | 0.00 | 0.00 | 1 | 1020.2 |
| 20260830151318 | 58 | 209 | 10.0 | 17.0 | 0.00 | 0.00 | 0.00 | 1 | 1020.3 |
| 20260830150335 | 58 | 215 | 9.0 | 14.0 | 0.00 | 0.00 | 0.00 | 1 | 1020.2 |
| 20260830145331 | 57 | 221 | 8.0 | 11.0 | 0.00 | 0.00 | 0.00 | 1 | 1020.1 |
| 20260830144348 | 57 | 200 | 8.0 | 12.0 | 0.00 | 0.00 | 0.00 | 1 | 1020.1 |
| 20260830143325 | 57 | 230 | 5.0 | 8.0 | 0.00 | 0.00 | 0.00 | 1 | 1020.2 |
| 20260830142322 | 57 | 214 | 7.0 | 11.0 | 0.00 | 0.00 | 0.00 | 1 | 1020.1 |
| 20260830141317 | 58 | 183 | 6.0 | 10.0 | 0.00 | 0.00 | 0.00 | 1 | 1020.0 |
| 20260830140334 | 57 | 190 | 9.0 | 12.0 | 0.00 | 0.00 | 0.00 | 1 | 1020.0 |
| 20260830135331 | 56 | 212 | 7.0 | 11.0 | 0.00 | 0.00 | 0.00 | 1 | 1020.0 |
| 20260830134328 | 56 | 194 | 7.0 | 10.0 | 0.00 | 0.00 | 0.00 | 1 | 1020.0 |
| 20260830133405 | 55 | 188 | 4.0 | 6.0 | 0.00 | 0.00 | 0.00 | 1 | 1020.1 |
| 20260830132401 | 55 | 216 | 7.0 | 11.0 | 0.00 | 0.00 | 0.00 | 1 | 1020.1 |
| 20260830131319 | 56 | 211 | 5.0 | 7.0 | 0.00 | 0.00 | 0.00 | 1 | 1020.0 |
| 20260830130354 | 56 | 212 | 5.0 | 7.0 | 0.00 | 0.00 | 0.00 | 1 | 1019.8 |
| 20260830125331 | 56 | 198 | 2.0 | 4.0 | 0.00 | 0.00 | 0.00 | 1 | 1019.8 |
| 20260830124328 | 56 | 251 | 1.0 | 3.0 | 0.00 | 0.00 | 0.00 | 1 | 1019.6 |
| 20260830123324 | 56 | 224 | 6.0 | 9.0 | 0.00 | 0.00 | 0.00 | 1 | 1019.6 |
| 20260830122321 | 56 | 228 | 4.0 | 6.0 | 0.00 | 0.00 | 0.00 | 1 | 1019.8 |
| 20260830121317 | 56 | 216 | 1.0 | 2.0 | 0.00 | 0.00 | 0.00 | 1 | 1019.7 |
| 20260830120334 | 56 | 233 | 1.0 | 3.0 | 0.00 | 0.00 | 0.00 | 1 | 1019.7 |
| 20260830115331 | 56 | 247 | 3.0 | 4.0 | 0.00 | 0.00 | 0.00 | 1 | 1019.8 |
| 20260830114347 | 56 | 232 | 2.0 | 3.0 | 0.00 | 0.00 | 0.00 | 1 | 1019.8 |
| 20260830113404 | 57 | 240 | 2.0 | 4.0 | 0.00 | 0.00 | 0.00 | 1 | 1019.7 |
| 20260830112320 | 57 | 198 | 4.0 | 6.0 | 0.00 | 0.00 | 0.00 | 1 | 1019.5 |
| 20260830111316 | 55 | 0.0 | 1.0 | 0.00 | 0.00 | 0.00 | 1 | 1019.5 | |
| 20260830110319 | 57 | 281 | 2.0 | 3.0 | 0.00 | 0.00 | 0.00 | 1 | 1019.5 |
| 20260830105316 | 58 | 244 | 2.0 | 3.0 | 0.00 | 0.00 | 0.00 | 1 | 1019.6 |
| 20260830104353 | 58 | 255 | 3.0 | 4.0 | 0.00 | 0.00 | 0.00 | 1 | 1019.5 |
| 20260830103329 | 59 | 276 | 1.0 | 4.0 | 0.00 | 0.00 | 0.00 | 1 | 1019.6 |
| 20260830102326 | 59 | 229 | 3.0 | 4.0 | 0.00 | 0.00 | 0.00 | 1 | 1019.4 |
| 20260830101343 | 59 | 209 | 3.0 | 5.0 | 0.00 | 0.00 | 0.00 | 1 | 1019.4 |
| 20260830100320 | 58 | 223 | 3.0 | 3.0 | 0.00 | 0.00 | 0.00 | 1 | 1019.3 |
| 20260830095316 | 58 | 216 | 4.0 | 6.0 | 0.00 | 0.00 | 0.00 | 1 | 1019.2 |
| 20260830094333 | 58 | 247 | 1.0 | 2.0 | 0.00 | 0.00 | 0.00 | 1 | 1019.2 |
| 20260830093330 | 59 | 215 | 4.0 | 6.0 | 0.00 | 0.00 | 0.00 | 1 | 1019.1 |
| 20260830092326 | 59 | 208 | 5.0 | 6.0 | 0.00 | 0.00 | 0.00 | 1 | 1019.0 |
| 20260830091343 | 59 | 243 | 2.0 | 4.0 | 0.00 | 0.00 | 0.00 | 1 | 1019.1 |
| 20260830090319 | 59 | 215 | 4.0 | 5.0 | 0.00 | 0.00 | 0.00 | 1 | 1019.1 |
| 20260830085316 | 60 | 231 | 3.0 | 6.0 | 0.00 | 0.00 | 0.00 | 1 | 1018.8 |
| 20260830084333 | 59 | 241 | 2.0 | 4.0 | 0.00 | 0.00 | 0.00 | 1 | 1019.0 |
| 20260830083334 | 59 | 231 | 2.0 | 5.0 | 0.00 | 0.00 | 0.00 | 1 | 1019.1 |
| 20260830082326 | 59 | 245 | 3.0 | 5.0 | 0.00 | 0.00 | 0.00 | 1 | 1019.1 |
| 20260830081322 | 59 | 240 | 4.0 | 6.0 | 0.00 | 0.00 | 0.00 | 1 | 1019.2 |
| 20260830080319 | 58 | 270 | 5.0 | 9.0 | 0.00 | 0.00 | 0.00 | 1 | 1019.0 |
| 20260830075356 | 57 | 239 | 4.0 | 6.0 | 0.00 | 0.00 | 0.00 | 1 | 1019.0 |
| 20260830074333 | 56 | 286 | 2.0 | 3.0 | 0.00 | 0.00 | 0.00 | 1 | 1018.9 |
| 20260830073329 | 56 | 0.0 | 0.0 | 0.00 | 0.00 | 0.00 | 1 | 1018.9 | |
| 20260830072326 | 57 | 231 | 1.0 | 1.0 | 0.00 | 0.00 | 0.00 | 1 | 1018.8 |
| 20260830071323 | 59 | 226 | 2.0 | 4.0 | 0.00 | 0.00 | 0.00 | 1 | 1018.7 |
| 20260830070319 | 59 | 267 | 2.0 | 2.0 | 0.00 | 0.00 | 0.00 | 1 | 1018.7 |
| 20260830065335 | 59 | 268 | 1.0 | 3.0 | 0.00 | 0.00 | 0.00 | 1 | 1018.8 |
| 20260830064332 | 60 | 286 | 3.0 | 5.0 | 0.00 | 0.00 | 0.00 | 1 | 1018.8 |
| 20260830063329 | 60 | 252 | 2.0 | 4.0 | 0.00 | 0.00 | 0.00 | 1 | 1018.5 |
| 20260830062326 | 60 | 260 | 3.0 | 4.0 | 0.00 | 0.00 | 0.00 | 1 | 1018.7 |
| 20260830061323 | 60 | 269 | 2.0 | 4.0 | 0.00 | 0.00 | 0.00 | 1 | 1018.4 |
| 20260830060320 | 61 | 265 | 3.0 | 5.0 | 0.00 | 0.00 | 0.00 | 1 | 1018.6 |
| 20260830055341 | 61 | 288 | 5.0 | 6.0 | 0.00 | 0.00 | 0.00 | 1 | 1018.7 |
| 20260830054333 | 60 | 327 | 3.0 | 4.0 | 0.00 | 0.00 | 0.00 | 1 | 1018.7 |
| 20260830053330 | 61 | 298 | 4.0 | 4.0 | 0.00 | 0.00 | 0.00 | 1 | 1018.8 |
| 20260830052347 | 61 | 302 | 4.0 | 5.0 | 0.00 | 0.00 | 0.00 | 1 | 1018.7 |
| 20260830051323 | 62 | 282 | 2.0 | 4.0 | 0.00 | 0.00 | 0.00 | 1 | 1018.8 |
| 20260830050340 | 60 | 260 | 3.0 | 4.0 | 0.00 | 0.00 | 0.00 | 1 | 1018.9 |
| 20260830045317 | 60 | 254 | 2.0 | 3.0 | 0.00 | 0.00 | 0.00 | 1 | 1018.7 |
| 20260830044334 | 62 | 230 | 1.0 | 2.0 | 0.00 | 0.00 | 0.00 | 1 | 1018.6 |
| 20260830043331 | 62 | 203 | 2.0 | 2.0 | 0.00 | 0.00 | 0.00 | 1 | 1018.6 |
| 20260830042349 | 63 | 1 | 2.0 | 3.0 | 0.00 | 0.00 | 0.00 | 1 | 1018.6 |
| 20260830041344 | 63 | 334 | 4.0 | 4.0 | 0.00 | 0.00 | 0.00 | 1 | 1018.5 |
| 20260830040341 | 63 | 42 | 2.0 | 2.0 | 0.00 | 0.00 | 0.00 | 1 | 1018.2 |
| 20260830035317 | 64 | 0.0 | 0.0 | 0.00 | 0.00 | 0.00 | 1 | 1018.2 | |
| 20260830034335 | 64 | 0.0 | 2.0 | 0.00 | 0.00 | 0.00 | 1 | 1018.0 | |
| 20260830033331 | 65 | 333 | 3.0 | 3.0 | 0.00 | 0.00 | 0.00 | 1 | 1018.0 |
| 20260830032329 | 65 | 0.0 | 0.0 | 0.00 | 0.00 | 0.00 | 1 | 1017.7 | |
| 20260830031325 | 65 | 218 | 1.0 | 2.0 | 0.00 | 0.00 | 0.00 | 1 | 1017.4 |
| 20260830030321 | 66 | 218 | 3.0 | 3.0 | 0.00 | 0.00 | 0.00 | 1 | 1017.2 |
| 20260830025318 | 67 | 0 | 4.0 | 5.0 | 0.00 | 0.00 | 0.00 | 1 | 1017.2 |
| 20260830024335 | 67 | 354 | 8.0 | 11.0 | 0.00 | 0.00 | 0.00 | 1 | 1016.9 |
| 20260830023332 | 68 | 11 | 8.0 | 10.0 | 0.00 | 0.00 | 0.00 | 1 | 1016.8 |
| 20260830022328 | 70 | 355 | 8.0 | 11.0 | 0.00 | 0.00 | 0.00 | 1 | 1016.9 |
| 20260830021325 | 71 | 349 | 4.0 | 6.0 | 0.00 | 0.00 | 0.00 | 1 | 1016.6 |
| 20260830020344 | 72 | 321 | 5.0 | 5.0 | 0.00 | 0.00 | 0.00 | 1 | 1016.5 |
| 20260830015339 | 73 | 332 | 7.0 | 9.0 | 0.00 | 0.00 | 0.00 | 1 | 1016.4 |
| 20260830014336 | 73 | 319 | 5.0 | 7.0 | 0.00 | 0.00 | 0.00 | 1 | 1016.4 |
| 20260830013333 | 74 | 340 | 5.0 | 8.0 | 0.00 | 0.00 | 0.00 | 1 | 1016.1 |